User: anonymous
Location: Melbourne
(37.8170°S, 144.9670°E)
Time: 04:56:54
(UTC+11:00)
Language:

Aureole 2 Rocket - Orbit

View from above orbital plane
View from above orbital plane
View from above satellite
View from above satellite

Ground track
Ground track

The orbit data is extracted from the following two-line orbital elements,

1 07004U 73107B   14292.47878378  .00027145  00000-0  70970-3 0  7543
2 07004 073.9492 330.9256 0286097 085.2542 026.4845 15.06279107 89052
Epoch (UTC): 19 October 2014 11:29:26
Eccentricity: 0.0286097
inclination: 73.9492°
perigee height: 349 km
apogee height: 746 km
right ascension of ascending node: 330.9256°
argument of perigee: 85.2542°
revolutions per day: 15.06279107
mean anomaly at epoch: 26.4845°
orbit number at epoch: 8905

The dashed part of the orbit path shows where the satellite is in the earth's shadow,  

DLR